sat.trackr.live / text

‹ back to catalog

STARLINK-30603

NORAD 58080 · 2023-160F

PAYLOAD ACTIVE UNKNOWN

§ Identity

Operator
Country
US
Launch date
2023-10-18
Launch site
AFETR
Launch vehicle
Mass (kg)
RCS (m²)

Purposes: comms

External: N2YO · Heavens-Above · Gunter

§ Orbital elements

Epoch: 2026-05-24T23:35:09.165408Z

Period
94.27 min
Inclination
43.0041°
Eccentricity
0.0001360
Mean motion
15.27589349 rev/d
Perigee alt
482.1 km
Apogee alt
484.0 km
Semi-major
6,861.2 km
B*
7.0489e-5
RAAN
7.0433°
Arg perigee
273.8807°
Mean anomaly
86.1889°
Rev number
14,461

§ Raw data

STARLINK-306031 58080U 23160F   26144.98274497  .00001679  00000+0  70489-4 0  99942 58080  43.0041   7.0433 0001360 273.8807  86.1889 15.27589349144616

JSON: /api/v1/satellites/58080 · /tle

For live sub-satellite position, see the globe view (requires WebGL).

§ Visibility from observer

Set your observer location to see the next 7 days of passes ≥ 10°. The values pass through the URL so the page stays shareable.

No JS? Fill the form by hand. The geolocation button needs JavaScript.